20040112,000004,536226,33.452333,-117.723833,NaN,14.304,33.054,40.126,  NaN,0.0, NaN, NaN, NaN, NaN, NaN,330.958,15.80,1014.28,82.30,NaN,234.0,NaN,0.0,NaN,136.6,NaN,4.3,NaN,NaN, NaN,NaN,315.0,NaN,NaN,NaN,2,8.4,000002,   NaN,316.2,     NaN,      NaN,NaN,6.0,NaN,14.308, NaN,NaN,NaN, NaN, NaN

20040112,000034,536256,33.453167,-117.724833,NaN,14.309,33.044,40.120,  NaN,0.0, NaN, NaN, NaN, NaN, NaN,331.788,15.80,1014.35,82.50,NaN,232.0,NaN,0.0,NaN,136.1,NaN,4.3,NaN,NaN, NaN,NaN,314.0,NaN,NaN,NaN,2,8.4,000032,   NaN,316.1,     NaN,      NaN,NaN,5.6,NaN,14.313, NaN,NaN,NaN, NaN, NaN

20040112,000104,536286,33.453833,-117.725833,NaN,14.287,33.045,40.100,  NaN,0.0, NaN, NaN, NaN, NaN, NaN,331.276,15.80,1014.33,82.60,NaN,234.0,NaN,0.0,NaN,135.5,NaN,4.3,NaN,NaN, NaN,NaN,313.0,NaN,NaN,NaN,2,8.3,000062,   NaN,315.5,     NaN,      NaN,NaN,5.8,NaN,14.290, NaN,NaN,NaN, NaN, NaN

20040112,000134,536316,33.454667,-117.726833,NaN,14.328,33.034,40.126,  NaN,0.0, NaN, NaN, NaN, NaN, NaN,332.887,15.90,1014.42,82.60,NaN,234.0,NaN,0.0,NaN,135.5,NaN,4.3,NaN,NaN, NaN,NaN,313.0,NaN,NaN,NaN,2,8.3,000092,   NaN,315.6,     NaN,      NaN,NaN,5.6,NaN,14.331, NaN,NaN,NaN, NaN, NaN

20040112,000204,536346,33.455500,-117.727833,NaN,14.376,33.031,40.168,  NaN,0.0, NaN, NaN, NaN, NaN, NaN,334.042,15.90,1014.47,82.50,NaN,235.0,NaN,0.0,NaN,135.5,NaN,4.3,NaN,NaN, NaN,NaN,312.0,NaN,NaN,NaN,2,8.5,000122,   NaN,315.4,     NaN,      NaN,NaN,5.8,NaN,14.379, NaN,NaN,NaN, NaN, NaN

20040112,000234,536376,33.456333,-117.729000,NaN,14.351,33.044,40.159,  NaN,0.0, NaN, NaN, NaN, NaN, NaN,332.615,15.80,1014.27,82.40,NaN,241.0,NaN,0.0,NaN,133.9,NaN,4.7,NaN,NaN, NaN,NaN,312.0,NaN,NaN,NaN,2,9.2,000152,   NaN,313.9,     NaN,      NaN,NaN,6.2,NaN,14.355, NaN,NaN,NaN, NaN, NaN

20040112,000304,536406,33.457333,-117.730167,NaN,14.352,33.032,40.147,  NaN,0.0, NaN, NaN, NaN, NaN, NaN,333.463,15.70,1014.38,82.60,NaN,243.0,NaN,0.0,NaN,132.3,NaN,4.9,NaN,NaN, NaN,NaN,313.0,NaN,NaN,NaN,2,9.5,000182,   NaN,312.3,     NaN,      NaN,NaN,6.4,NaN,14.355, NaN,NaN,NaN, NaN, NaN

20040112,000334,536436,33.458167,-117.731333,NaN,14.344,33.037,40.144,  NaN,0.0, NaN, NaN, NaN, NaN, NaN,333.003,15.70,1014.39,82.90,NaN,245.0,NaN,0.0,NaN,133.9,NaN,4.9,NaN,NaN, NaN,NaN,314.0,NaN,NaN,NaN,2,9.7,000212,   NaN,314.1,     NaN,      NaN,NaN,6.4,NaN,14.347, NaN,NaN,NaN, NaN, NaN

20040112,000404,536466,33.459000,-117.732500,NaN,14.349,33.036,40.149,  NaN,0.0, NaN, NaN, NaN, NaN, NaN,333.144,15.70,1014.38,83.40,NaN,246.0,NaN,0.0,NaN,132.9,NaN,5.0,NaN,NaN, NaN,NaN,311.0,NaN,NaN,NaN,2,9.6,000242,   NaN,312.8,     NaN,      NaN,NaN,6.8,NaN,14.353, NaN,NaN,NaN, NaN, NaN

20040112,000434,536496,33.460000,-117.733667,NaN,14.273,33.045,40.087,  NaN,0.0, NaN, NaN, NaN, NaN, NaN,330.958,15.70,1014.27,83.50,NaN,248.0,NaN,0.0,NaN,133.9,NaN,5.0,NaN,NaN, NaN,NaN,313.0,NaN,NaN,NaN,2,9.7,000272,   NaN,314.0,     NaN,      NaN,NaN,6.7,NaN,14.276, NaN,NaN,NaN, NaN, NaN

20040112,000504,536526,33.461000,-117.734833,NaN,14.232,33.038,40.041,  NaN,0.0, NaN, NaN, NaN, NaN, NaN,330.694,15.70,1014.32,83.40,NaN,251.0,NaN,0.0,NaN,133.7,NaN,5.0,NaN,NaN, NaN,NaN,314.0,NaN,NaN,NaN,2,9.7,000302,   NaN,313.7,     NaN,      NaN,NaN,6.5,NaN,14.236, NaN,NaN,NaN, NaN, NaN

20040112,000534,536556,33.461833,-117.736167,NaN,14.200,33.039,40.013,  NaN,0.0, NaN, NaN, NaN, NaN, NaN,329.989,15.50,1014.33,83.70,NaN,253.0,NaN,0.0,NaN,133.3,NaN,4.9,NaN,NaN, NaN,NaN,312.0,NaN,NaN,NaN,2,9.6,000332,   NaN,313.2,     NaN,      NaN,NaN,6.7,NaN,14.204, NaN,NaN,NaN, NaN, NaN

20040112,000604,536586,33.462833,-117.737333,NaN,14.272,33.034,40.074,  NaN,0.0, NaN, NaN, NaN, NaN, NaN,331.746,15.50,1014.31,83.80,NaN,254.0,NaN,0.0,NaN,132.7,NaN,5.0,NaN,NaN, NaN,NaN,311.0,NaN,NaN,NaN,2,9.6,000362,   NaN,312.8,     NaN,      NaN,NaN,6.8,NaN,14.275, NaN,NaN,NaN, NaN, NaN

20040112,000634,536616,33.463667,-117.738500,NaN,14.286,33.032,40.085,  NaN,0.0, NaN, NaN, NaN, NaN, NaN,332.202,15.50,1014.25,83.70,NaN,254.0,NaN,0.0,NaN,133.5,NaN,5.0,NaN,NaN, NaN,NaN,312.0,NaN,NaN,NaN,2,9.7,000392,   NaN,313.3,     NaN,      NaN,NaN,6.7,NaN,14.289, NaN,NaN,NaN, NaN, NaN

20040112,000704,536646,33.464667,-117.739667,NaN,14.321,33.035,40.121,  NaN,0.0, NaN, NaN, NaN, NaN, NaN,332.658,15.50,1014.28,83.80,NaN,254.0,NaN,0.0,NaN,132.0,NaN,5.0,NaN,NaN, NaN,NaN,311.0,NaN,NaN,NaN,2,9.7,000422,   NaN,312.0,     NaN,      NaN,NaN,6.5,NaN,14.325, NaN,NaN,NaN, NaN, NaN

20040112,000734,536676,33.465500,-117.740833,NaN,14.305,33.036,40.108,  NaN,0.0, NaN, NaN, NaN, NaN, NaN,332.254,15.50,1014.45,83.80,NaN,254.0,NaN,0.0,NaN,133.5,NaN,4.9,NaN,NaN, NaN,NaN,312.0,NaN,NaN,NaN,2,9.6,000452,   NaN,313.5,     NaN,      NaN,NaN,6.6,NaN,14.309, NaN,NaN,NaN, NaN, NaN

20040112,000804,536706,33.466500,-117.742000,NaN,14.375,33.016,40.150,  NaN,0.0, NaN, NaN, NaN, NaN, NaN,335.130,15.50,1014.29,83.90,NaN,254.0,NaN,0.0,NaN,133.6,NaN,5.0,NaN,NaN, NaN,NaN,312.0,NaN,NaN,NaN,2,9.7,000482,   NaN,313.9,     NaN,      NaN,NaN,6.5,NaN,14.378, NaN,NaN,NaN, NaN, NaN

20040112,000834,536736,33.467333,-117.743333,NaN,14.687,32.988,40.411,  NaN,0.0, NaN, NaN, NaN, NaN, NaN,343.476,15.50,1014.36,84.10,NaN,256.0,NaN,0.0,NaN,133.4,NaN,4.9,NaN,NaN, NaN,NaN,312.0,NaN,NaN,NaN,2,9.7,000512,   NaN,313.4,     NaN,      NaN,NaN,6.8,NaN,14.690, NaN,NaN,NaN, NaN, NaN

20040112,000904,536766,33.468333,-117.744500,NaN,14.986,33.010,40.713,  NaN,0.0, NaN, NaN, NaN, NaN, NaN,347.994,15.50,1014.29,84.20,NaN,257.0,NaN,0.0,NaN,132.6,NaN,5.0,NaN,NaN, NaN,NaN,312.0,NaN,NaN,NaN,2,9.7,000542,   NaN,312.6,     NaN,      NaN,NaN,6.6,NaN,14.989, NaN,NaN,NaN, NaN, NaN

20040112,000934,536796,33.469167,-117.745667,NaN,15.178,33.057,40.946,  NaN,0.0, NaN, NaN, NaN, NaN, NaN,348.490,15.50,1014.42,84.30,NaN,257.0,NaN,0.0,NaN,132.5,NaN,5.0,NaN,NaN, NaN,NaN,311.0,NaN,NaN,NaN,2,9.6,000572,   NaN,312.5,     NaN,      NaN,NaN,6.9,NaN,15.182, NaN,NaN,NaN, NaN, NaN

20040112,001004,536826,33.470167,-117.746833,NaN,15.159,33.091,40.966,  NaN,0.0, NaN, NaN, NaN, NaN, NaN,345.599,15.50,1014.24,84.40,NaN,259.0,NaN,0.0,NaN,133.2,NaN,4.8,NaN,NaN, NaN,NaN,311.0,NaN,NaN,NaN,2,9.4,000602,   NaN,313.3,     NaN,      NaN,NaN,6.8,NaN,15.163, NaN,NaN,NaN, NaN, NaN

20040112,001034,536856,33.471000,-117.748000,NaN,15.090,33.106,40.918,  NaN,0.0, NaN, NaN, NaN, NaN, NaN,343.065,15.50,1014.41,84.40,NaN,260.0,NaN,0.0,NaN,133.6,NaN,4.8,NaN,NaN, NaN,NaN,313.0,NaN,NaN,NaN,2,9.4,000632,   NaN,313.6,     NaN,      NaN,NaN,6.6,NaN,15.094, NaN,NaN,NaN, NaN, NaN

20040112,001104,536886,33.471833,-117.749000,NaN,15.146,33.088,40.950,  NaN,0.0, NaN, NaN, NaN, NaN, NaN,345.560,15.50,1014.35,84.40,NaN,260.0,NaN,0.0,NaN,133.9,NaN,4.8,NaN,NaN, NaN,NaN,313.0,NaN,NaN,NaN,2,9.3,000662,   NaN,314.0,     NaN,      NaN,NaN,6.4,NaN,15.149, NaN,NaN,NaN, NaN, NaN

20040112,001134,536916,33.472833,-117.750167,NaN,15.179,33.110,41.005,  NaN,0.0, NaN, NaN, NaN, NaN, NaN,344.621,15.50,1014.35,84.70,NaN,261.0,NaN,0.0,NaN,133.5,NaN,4.8,NaN,NaN, NaN,NaN,312.0,NaN,NaN,NaN,2,9.3,000692,   NaN,313.5,     NaN,      NaN,NaN,6.8,NaN,15.182, NaN,NaN,NaN, NaN, NaN

20040112,001204,536946,33.473667,-117.751333,NaN,15.088,33.117,40.928,  NaN,0.0, NaN, NaN, NaN, NaN, NaN,342.261,15.50,1014.40,84.90,NaN,261.0,NaN,0.0,NaN,132.5,NaN,4.8,NaN,NaN, NaN,NaN,312.0,NaN,NaN,NaN,2,9.3,000722,   NaN,312.4,     NaN,      NaN,NaN,6.8,NaN,15.092, NaN,NaN,NaN, NaN, NaN

20040112,001234,536976,33.474500,-117.752500,NaN,15.016,33.116,40.859,  NaN,0.0, NaN, NaN, NaN, NaN, NaN,340.803,15.50,1014.29,84.70,NaN,263.0,NaN,0.0,NaN,133.3,NaN,4.8,NaN,NaN, NaN,NaN,311.0,NaN,NaN,NaN,2,9.3,000752,   NaN,313.3,     NaN,      NaN,NaN,6.4,NaN,15.019, NaN,NaN,NaN, NaN, NaN

20040112,001304,537006,33.475500,-117.753667,NaN,14.964,33.112,40.806,  NaN,0.0, NaN, NaN, NaN, NaN, NaN,340.075,15.50,1014.53,84.70,NaN,262.0,NaN,0.0,NaN,133.0,NaN,4.7,NaN,NaN, NaN,NaN,313.0,NaN,NaN,NaN,2,9.3,000782,   NaN,312.7,     NaN,      NaN,NaN,6.8,NaN,14.968, NaN,NaN,NaN, NaN, NaN

20040112,001334,537036,33.476333,-117.754833,NaN,14.920,33.115,40.768,  NaN,0.0, NaN, NaN, NaN, NaN, NaN,338.903,15.50,1014.34,84.70,NaN,263.0,NaN,0.0,NaN,134.1,NaN,4.8,NaN,NaN, NaN,NaN,313.0,NaN,NaN,NaN,2,9.2,000812,   NaN,314.2,     NaN,      NaN,NaN,6.3,NaN,14.924, NaN,NaN,NaN, NaN, NaN

20040112,001404,537066,33.477333,-117.755833,NaN,14.823,33.119,40.681,  NaN,0.0, NaN, NaN, NaN, NaN, NaN,336.613,15.50,1014.54,84.80,NaN,263.0,NaN,0.0,NaN,133.7,NaN,4.8,NaN,NaN, NaN,NaN,315.0,NaN,NaN,NaN,2,9.4,000842,   NaN,313.7,     NaN,      NaN,NaN,6.8,NaN,14.826, NaN,NaN,NaN, NaN, NaN

20040112,001434,537096,33.478167,-117.757000,NaN,14.793,33.107,40.641,  NaN,0.0, NaN, NaN, NaN, NaN, NaN,336.919,15.50,1014.47,85.10,NaN,265.0,NaN,0.0,NaN,132.2,NaN,4.8,NaN,NaN, NaN,NaN,312.0,NaN,NaN,NaN,2,9.2,000872,   NaN,312.2,     NaN,      NaN,NaN,6.6,NaN,14.797, NaN,NaN,NaN, NaN, NaN

20040112,001504,537126,33.479000,-117.758167,NaN,14.913,33.101,40.747,  NaN,0.0, NaN, NaN, NaN, NaN, NaN,339.792,15.50,1014.37,85.10,NaN,265.0,NaN,0.0,NaN,133.1,NaN,4.8,NaN,NaN, NaN,NaN,313.0,NaN,NaN,NaN,2,9.3,000902,   NaN,313.0,     NaN,      NaN,NaN,6.6,NaN,14.917, NaN,NaN,NaN, NaN, NaN

20040112,001534,537156,33.480000,-117.759333,NaN,14.931,33.108,40.771,  NaN,0.0, NaN, NaN, NaN, NaN, NaN,339.650,15.50,1014.44,85.20,NaN,265.0,NaN,0.0,NaN,133.5,NaN,4.8,NaN,NaN, NaN,NaN,314.0,NaN,NaN,NaN,2,9.4,000932,   NaN,313.5,     NaN,      NaN,NaN,6.6,NaN,14.934, NaN,NaN,NaN, NaN, NaN

20040112,001604,537186,33.480833,-117.760500,NaN,14.886,33.113,40.734,  NaN,0.0, NaN, NaN, NaN, NaN, NaN,338.387,15.50,1014.41,84.90,NaN,265.0,NaN,0.0,NaN,131.7,NaN,4.8,NaN,NaN, NaN,NaN,312.0,NaN,NaN,NaN,2,9.3,000962,   NaN,311.7,     NaN,      NaN,NaN,6.6,NaN,14.889, NaN,NaN,NaN, NaN, NaN

20040112,001634,537216,33.481833,-117.761500,NaN,14.816,33.115,40.671,  NaN,0.0, NaN, NaN, NaN, NaN, NaN,336.826,15.50,1014.43,84.90,NaN,265.0,NaN,0.0,NaN,132.7,NaN,4.8,NaN,NaN, NaN,NaN,311.0,NaN,NaN,NaN,2,9.3,000992,   NaN,312.5,     NaN,      NaN,NaN,6.8,NaN,14.820, NaN,NaN,NaN, NaN, NaN

20040112,001704,537246,33.482667,-117.762667,NaN,14.869,33.102,40.706,  NaN,0.0, NaN, NaN, NaN, NaN, NaN,338.873,15.50,1014.37,85.10,NaN,264.0,NaN,0.0,NaN,132.9,NaN,4.8,NaN,NaN, NaN,NaN,313.0,NaN,NaN,NaN,2,9.4,001022,   NaN,312.9,     NaN,      NaN,NaN,6.6,NaN,14.873, NaN,NaN,NaN, NaN, NaN

20040112,001734,537276,33.483500,-117.763833,NaN,14.984,33.103,40.815,  NaN,0.0, NaN, NaN, NaN, NaN, NaN,341.114,15.50,1014.50,85.20,NaN,264.0,NaN,0.0,NaN,134.4,NaN,4.5,NaN,NaN, NaN,NaN,315.0,NaN,NaN,NaN,2,8.7,001052,   NaN,314.3,     NaN,      NaN,NaN,6.0,NaN,14.987, NaN,NaN,NaN, NaN, NaN

20040112,001804,537306,33.484333,-117.764667,NaN,15.018,33.106,40.851,  NaN,0.0, NaN, NaN, NaN, NaN, NaN,341.582,15.50,1014.47,84.80,NaN,241.0,NaN,0.0,NaN,133.7,NaN,3.3,NaN,NaN, NaN,NaN,313.0,NaN,NaN,NaN,2,6.3,001082,   NaN,313.7,     NaN,      NaN,NaN,4.9,NaN,15.022, NaN,NaN,NaN, NaN, NaN

20040112,001834,537336,33.484833,-117.765333,NaN,15.013,33.113,40.852,  NaN,0.0, NaN, NaN, NaN, NaN, NaN,341.022,15.30,1014.25,84.90,NaN,171.0,NaN,2.2,NaN,122.2,NaN,4.4,NaN,NaN, NaN,NaN,311.0,NaN,NaN,NaN,2,4.3,001112,   NaN,305.1,     NaN,      NaN,NaN,3.4,NaN,15.016, NaN,NaN,NaN, NaN, NaN

20040112,001904,537366,33.485000,-117.765667,NaN,15.051,33.107,40.882,  NaN,0.0, NaN, NaN, NaN, NaN, NaN,342.217,15.30,1014.44,86.10,NaN,207.0,NaN,2.8,NaN,119.8,NaN,4.4,NaN,NaN, NaN,NaN,288.0,NaN,NaN,NaN,2,3.0,001142,   NaN,281.3,     NaN,      NaN,NaN,2.2,NaN,15.055, NaN,NaN,NaN, NaN, NaN

20040112,001934,537396,33.485000,-117.766167,NaN,15.104,33.109,40.934,  NaN,0.0, NaN, NaN, NaN, NaN, NaN,343.127,15.30,1014.48,86.20,NaN,230.0,NaN,3.9,NaN,123.3,NaN,4.6,NaN,NaN, NaN,NaN,265.0,NaN,NaN,NaN,2,2.8,001172,   NaN,268.1,     NaN,      NaN,NaN,1.9,NaN,15.107, NaN,NaN,NaN, NaN, NaN

20040112,002004,537426,33.485000,-117.766667,NaN,15.121,33.110,40.951,  NaN,0.0, NaN, NaN, NaN, NaN, NaN,343.451,15.30,1014.43,86.90,NaN,226.0,NaN,3.0,NaN,123.6,NaN,4.3,NaN,NaN, NaN,NaN,265.0,NaN,NaN,NaN,2,2.6,001202,   NaN,269.8,     NaN,      NaN,NaN,1.8,NaN,15.125, NaN,NaN,NaN, NaN, NaN

20040112,002034,537456,33.484833,-117.767000,NaN,15.079,33.118,40.920,  NaN,0.0, NaN, NaN, NaN, NaN, NaN,341.993,15.10,1014.38,86.70,NaN,230.0,NaN,3.7,NaN,122.2,NaN,4.7,NaN,NaN, NaN,NaN,252.0,NaN,NaN,NaN,2,1.9,001232,   NaN,262.7,     NaN,      NaN,NaN,1.3,NaN,15.083, NaN,NaN,NaN, NaN, NaN

20040112,002103,537485,33.484833,-117.767167,NaN,15.047,33.117,40.889,  NaN,0.0, NaN, NaN, NaN, NaN, NaN,341.401,15.10,1014.44,87.20,NaN,243.0,NaN,4.0,NaN,126.2,NaN,4.8,NaN,NaN, NaN,NaN,244.0,NaN,NaN,NaN,2,2.0,001262,   NaN,250.5,     NaN,      NaN,NaN,1.2,NaN,15.050, NaN,NaN,NaN, NaN, NaN

20040112,002133,537515,33.484667,-117.767500,NaN,15.016,33.116,40.859,  NaN,0.0, NaN, NaN, NaN, NaN, NaN,340.824,15.10,1014.33,87.50,NaN,241.0,NaN,4.1,NaN,126.1,NaN,5.1,NaN,NaN, NaN,NaN,242.0,NaN,NaN,NaN,2,2.1,001292,   NaN,254.5,     NaN,      NaN,NaN,1.5,NaN,15.020, NaN,NaN,NaN, NaN, NaN

20040112,002203,537545,33.484500,-117.767833,NaN,14.965,33.118,40.814,  NaN,0.0, NaN, NaN, NaN, NaN, NaN,339.628,15.10,1014.40,87.40,NaN,239.0,NaN,4.3,NaN,120.9,NaN,4.8,NaN,NaN, NaN,NaN,239.0,NaN,NaN,NaN,2,1.7,001322,   NaN,253.6,     NaN,      NaN,NaN,1.2,NaN,14.969, NaN,NaN,NaN, NaN, NaN

20040112,002233,537575,33.484500,-117.768000,NaN,14.918,33.117,40.768,  NaN,0.0, NaN, NaN, NaN, NaN, NaN,338.769,15.10,1014.54,87.50,NaN,241.0,NaN,3.8,NaN,120.7,NaN,4.7,NaN,NaN, NaN,NaN,237.0,NaN,NaN,NaN,2,1.6,001352,   NaN,249.4,     NaN,      NaN,NaN,1.1,NaN,14.921, NaN,NaN,NaN, NaN, NaN

20040112,002303,537605,33.484333,-117.768333,NaN,14.881,33.115,40.732,  NaN,0.0, NaN, NaN, NaN, NaN, NaN,338.126,15.10,1014.42,87.80,NaN,246.0,NaN,5.1,NaN,127.0,NaN,5.5,NaN,NaN, NaN,NaN,226.0,NaN,NaN,NaN,2,1.7,001382,   NaN,248.6,     NaN,      NaN,NaN,1.1,NaN,14.885, NaN,NaN,NaN, NaN, NaN

20040112,002333,537635,33.484167,-117.768500,NaN,14.873,33.112,40.721,  NaN,0.0, NaN, NaN, NaN, NaN, NaN,338.157,15.00,1014.35,87.50,NaN,241.0,NaN,3.9,NaN,121.9,NaN,4.8,NaN,NaN, NaN,NaN,231.0,NaN,NaN,NaN,2,1.9,001412,   NaN,252.1,     NaN,      NaN,NaN,1.1,NaN,14.877, NaN,NaN,NaN, NaN, NaN

20040112,002403,537665,33.484000,-117.768667,NaN,14.857,33.114,40.708,  NaN,0.0, NaN, NaN, NaN, NaN, NaN,337.711,15.00,1014.36,87.90,NaN,232.0,NaN,4.0,NaN,121.6,NaN,4.3,NaN,NaN, NaN,NaN,229.0,NaN,NaN,NaN,2,1.6,001442,   NaN,255.7,     NaN,      NaN,NaN,1.0,NaN,14.860, NaN,NaN,NaN, NaN, NaN

20040112,002433,537695,33.484000,-117.768833,NaN,14.857,33.112,40.706,  NaN,0.0, NaN, NaN, NaN, NaN, NaN,337.850,15.00,1014.34,88.30,NaN,234.0,NaN,4.7,NaN,121.1,NaN,4.8,NaN,NaN, NaN,NaN,221.0,NaN,NaN,NaN,2,1.3,001472,   NaN,252.3,     NaN,      NaN,NaN,0.8,NaN,14.860, NaN,NaN,NaN, NaN, NaN

20040112,002503,537725,33.483833,-117.768833,NaN,14.880,33.111,40.726,  NaN,0.0, NaN, NaN, NaN, NaN, NaN,338.433,15.00,1014.36,88.40,NaN,240.0,NaN,4.9,NaN,120.6,NaN,4.8,NaN,NaN, NaN,NaN,211.0,NaN,NaN,NaN,2,1.0,001502,   NaN,244.9,     NaN,      NaN,NaN,0.8,NaN,14.883, NaN,NaN,NaN, NaN, NaN

20040112,002533,537755,33.483833,-117.769000,NaN,14.896,33.111,40.741,  NaN,0.0, NaN, NaN, NaN, NaN, NaN,338.719,15.00,1014.34,88.60,NaN,247.0,NaN,4.1,NaN,118.4,NaN,4.3,NaN,NaN, NaN,NaN,212.0,NaN,NaN,NaN,2,0.9,001532,   NaN,235.2,     NaN,      NaN,NaN,0.6,NaN,14.899, NaN,NaN,NaN, NaN, NaN

20040112,002603,537785,33.483833,-117.769000,NaN,14.900,33.112,40.746,  NaN,0.0, NaN, NaN, NaN, NaN, NaN,338.702,15.00,1014.40,88.80,NaN,261.0,NaN,4.4,NaN,119.4,NaN,4.5,NaN,NaN, NaN,NaN,189.0,NaN,NaN,NaN,2,0.8,001562,   NaN,225.2,     NaN,      NaN,NaN,0.5,NaN,14.903, NaN,NaN,NaN, NaN, NaN

20040112,002633,537815,33.483667,-117.769000,NaN,14.892,33.114,40.741,  NaN,0.0, NaN, NaN, NaN, NaN, NaN,338.453,15.10,1014.18,88.90,NaN,268.0,NaN,4.4,NaN,118.3,NaN,3.8,NaN,NaN, NaN,NaN,189.0,NaN,NaN,NaN,2,0.8,001592,   NaN,215.2,     NaN,      NaN,NaN,0.4,NaN,14.896, NaN,NaN,NaN, NaN, NaN

20040112,002703,537845,33.483500,-117.769167,NaN,14.870,33.114,40.721,  NaN,0.0, NaN, NaN, NaN, NaN, NaN,337.938,15.10,1014.30,88.90,NaN,278.0,NaN,6.1,NaN,120.2,NaN,5.6,NaN,NaN, NaN,NaN,171.0,NaN,NaN,NaN,2,1.5,001622,   NaN,212.0,     NaN,      NaN,NaN,0.4,NaN,14.874, NaN,NaN,NaN, NaN, NaN

20040112,002733,537875,33.483333,-117.769167,NaN,14.845,33.116,40.698,  NaN,0.0, NaN, NaN, NaN, NaN, NaN,337.340,15.10,1014.41,88.80,NaN,282.0,NaN,5.3,NaN,127.5,NaN,5.7,NaN,NaN, NaN,NaN,189.0,NaN,NaN,NaN,2,1.7,001652,   NaN,214.6,     NaN,      NaN,NaN,0.7,NaN,14.848, NaN,NaN,NaN, NaN, NaN

20040112,002803,537905,33.483167,-117.769333,NaN,14.841,33.112,40.691,  NaN,0.0, NaN, NaN, NaN, NaN, NaN,337.538,15.00,1014.36,88.80,NaN,276.0,NaN,4.9,NaN,127.5,NaN,4.9,NaN,NaN, NaN,NaN,204.0,NaN,NaN,NaN,2,1.8,001682,   NaN,222.5,     NaN,      NaN,NaN,0.7,NaN,14.845, NaN,NaN,NaN, NaN, NaN

20040112,002833,537935,33.483000,-117.769500,NaN,14.847,33.113,40.697,  NaN,0.0, NaN, NaN, NaN, NaN, NaN,337.588,15.00,1014.44,88.90,NaN,268.0,NaN,5.2,NaN,127.5,NaN,5.1,NaN,NaN, NaN,NaN,206.0,NaN,NaN,NaN,2,1.8,001712,   NaN,229.3,     NaN,      NaN,NaN,0.9,NaN,14.850, NaN,NaN,NaN, NaN, NaN

20040112,002903,537965,33.482833,-117.769500,NaN,14.835,33.113,40.686,  NaN,0.0, NaN, NaN, NaN, NaN, NaN,337.311,15.00,1014.50,88.90,NaN,262.0,NaN,4.6,NaN,125.4,NaN,4.7,NaN,NaN, NaN,NaN,210.0,NaN,NaN,NaN,2,1.5,001742,   NaN,232.6,     NaN,      NaN,NaN,0.8,NaN,14.838, NaN,NaN,NaN, NaN, NaN

20040112,002933,537995,33.482667,-117.769667,NaN,14.847,33.111,40.695,  NaN,0.0, NaN, NaN, NaN, NaN, NaN,337.705,15.00,1014.54,89.00,NaN,261.0,NaN,4.0,NaN,129.1,NaN,4.1,NaN,NaN, NaN,NaN,218.0,NaN,NaN,NaN,2,1.3,001772,   NaN,232.1,     NaN,      NaN,NaN,0.8,NaN,14.850, NaN,NaN,NaN, NaN, NaN

20040112,003003,538025,33.482500,-117.769833,NaN,14.856,33.112,40.705,  NaN,0.0, NaN, NaN, NaN, NaN, NaN,337.805,15.00,1014.49,89.00,NaN,257.0,NaN,4.8,NaN,123.1,NaN,4.8,NaN,NaN, NaN,NaN,213.0,NaN,NaN,NaN,2,1.2,001802,   NaN,231.0,     NaN,      NaN,NaN,0.7,NaN,14.859, NaN,NaN,NaN, NaN, NaN

20040112,003033,538055,33.482500,-117.769833,NaN,14.852,33.113,40.702,  NaN,0.0, NaN, NaN, NaN, NaN, NaN,337.684,15.00,1014.44,89.30,NaN,263.0,NaN,4.3,NaN,124.6,NaN,4.2,NaN,NaN, NaN,NaN,207.0,NaN,NaN,NaN,2,1.0,001832,   NaN,228.6,     NaN,      NaN,NaN,0.6,NaN,14.856, NaN,NaN,NaN, NaN, NaN

20040112,003103,538085,33.482333,-117.769833,NaN,14.843,33.113,40.694,  NaN,0.0, NaN, NaN, NaN, NaN, NaN,337.485,15.00,1014.42,89.40,NaN,262.0,NaN,4.9,NaN,124.7,NaN,4.9,NaN,NaN, NaN,NaN,198.0,NaN,NaN,NaN,2,1.1,001862,   NaN,225.8,     NaN,      NaN,NaN,0.5,NaN,14.847, NaN,NaN,NaN, NaN, NaN

20040112,003133,538115,33.482167,-117.769833,NaN,14.835,33.114,40.688,  NaN,0.0, NaN, NaN, NaN, NaN, NaN,337.218,15.00,1014.40,89.40,NaN,267.0,NaN,4.2,NaN,125.3,NaN,4.0,NaN,NaN, NaN,NaN,194.0,NaN,NaN,NaN,2,1.0,001892,   NaN,222.9,     NaN,      NaN,NaN,0.4,NaN,14.838, NaN,NaN,NaN, NaN, NaN

20040112,003203,538145,33.482167,-117.770000,NaN,14.838,33.112,40.688,  NaN,0.0, NaN, NaN, NaN, NaN, NaN,337.437,15.00,1014.49,89.70,NaN,269.0,NaN,3.9,NaN,123.0,NaN,3.8,NaN,NaN, NaN,NaN,198.0,NaN,NaN,NaN,2,1.0,001922,   NaN,220.6,     NaN,      NaN,NaN,0.4,NaN,14.841, NaN,NaN,NaN, NaN, NaN

20040112,003233,538175,33.482000,-117.770000,NaN,14.841,33.112,40.690,  NaN,0.0, NaN, NaN, NaN, NaN, NaN,337.564,15.00,1014.41,89.80,NaN,272.0,NaN,5.0,NaN,127.3,NaN,4.8,NaN,NaN, NaN,NaN,192.0,NaN,NaN,NaN,2,0.9,001952,   NaN,219.8,     NaN,      NaN,NaN,0.4,NaN,14.844, NaN,NaN,NaN, NaN, NaN

20040112,003303,538205,33.481833,-117.770000,NaN,14.841,33.113,40.692,  NaN,0.0, NaN, NaN, NaN, NaN, NaN,337.424,15.00,1014.40,89.70,NaN,271.0,NaN,4.6,NaN,125.1,NaN,4.0,NaN,NaN, NaN,NaN,198.0,NaN,NaN,NaN,2,0.8,001982,   NaN,220.2,     NaN,      NaN,NaN,0.4,NaN,14.844, NaN,NaN,NaN, NaN, NaN

20040112,003333,538235,33.481833,-117.770000,NaN,14.835,33.113,40.686,  NaN,0.0, NaN, NaN, NaN, NaN, NaN,337.288,15.00,1014.31,89.80,NaN,270.0,NaN,4.7,NaN,125.0,NaN,4.2,NaN,NaN, NaN,NaN,186.0,NaN,NaN,NaN,2,0.9,002012,   NaN,220.9,     NaN,      NaN,NaN,0.3,NaN,14.838, NaN,NaN,NaN, NaN, NaN

20040112,003403,538265,33.481667,-117.770000,NaN,14.830,33.113,40.682,  NaN,0.0, NaN, NaN, NaN, NaN, NaN,337.211,15.00,1014.54,89.90,NaN,271.0,NaN,5.0,NaN,126.1,NaN,4.8,NaN,NaN, NaN,NaN,186.0,NaN,NaN,NaN,2,0.7,002042,   NaN,222.4,     NaN,      NaN,NaN,0.2,NaN,14.834, NaN,NaN,NaN, NaN, NaN

20040112,003433,538295,33.481667,-117.770000,NaN,14.828,33.113,40.680,  NaN,0.0, NaN, NaN, NaN, NaN, NaN,337.196,15.00,1014.36,89.80,NaN,269.0,NaN,5.4,NaN,126.8,NaN,4.8,NaN,NaN, NaN,NaN,183.0,NaN,NaN,NaN,2,1.1,002072,   NaN,223.8,     NaN,      NaN,NaN,0.2,NaN,14.832, NaN,NaN,NaN, NaN, NaN

20040112,003503,538325,33.481500,-117.770000,NaN,14.817,33.113,40.670,  NaN,0.0, NaN, NaN, NaN, NaN, NaN,336.938,15.00,1014.60,89.90,NaN,264.0,NaN,5.6,NaN,127.0,NaN,5.6,NaN,NaN, NaN,NaN,196.0,NaN,NaN,NaN,2,1.0,002102,   NaN,228.3,     NaN,      NaN,NaN,0.3,NaN,14.821, NaN,NaN,NaN, NaN, NaN

20040112,003533,538355,33.481500,-117.770000,NaN,14.806,33.114,40.660,  NaN,0.0, NaN, NaN, NaN, NaN, NaN,336.679,15.00,1014.58,89.80,NaN,257.0,NaN,5.3,NaN,127.4,NaN,4.8,NaN,NaN, NaN,NaN,213.0,NaN,NaN,NaN,2,1.0,002132,   NaN,235.4,     NaN,      NaN,NaN,0.4,NaN,14.810, NaN,NaN,NaN, NaN, NaN

20040112,003603,538385,33.481500,-117.770000,NaN,14.787,33.114,40.643,  NaN,0.0, NaN, NaN, NaN, NaN, NaN,336.266,15.00,1014.62,89.90,NaN,252.0,NaN,4.5,NaN,128.1,NaN,4.7,NaN,NaN, NaN,NaN,232.0,NaN,NaN,NaN,2,0.8,002162,   NaN,243.2,     NaN,      NaN,NaN,0.5,NaN,14.791, NaN,NaN,NaN, NaN, NaN

20040112,003633,538415,33.481500,-117.770167,NaN,14.771,33.114,40.628,  NaN,0.0, NaN, NaN, NaN, NaN, NaN,335.957,15.00,1014.48,90.10,NaN,239.0,NaN,4.5,NaN,125.3,NaN,5.0,NaN,NaN, NaN,NaN,223.0,NaN,NaN,NaN,2,0.7,002192,   NaN,250.6,     NaN,      NaN,NaN,0.5,NaN,14.775, NaN,NaN,NaN, NaN, NaN

20040112,003703,538445,33.481333,-117.770167,NaN,14.764,33.113,40.620,  NaN,0.0, NaN, NaN, NaN, NaN, NaN,335.893,15.00,1014.73,90.20,NaN,228.0,NaN,4.5,NaN,124.5,NaN,4.9,NaN,NaN, NaN,NaN,230.0,NaN,NaN,NaN,2,0.8,002222,   NaN,258.1,     NaN,      NaN,NaN,0.5,NaN,14.767, NaN,NaN,NaN, NaN, NaN

20040112,003733,538475,33.481333,-117.770333,NaN,14.763,33.112,40.617,  NaN,0.0, NaN, NaN, NaN, NaN, NaN,335.946,15.00,1014.73,90.40,NaN,229.0,NaN,3.9,NaN,126.0,NaN,4.9,NaN,NaN, NaN,NaN,236.0,NaN,NaN,NaN,2,0.8,002252,   NaN,262.1,     NaN,      NaN,NaN,0.5,NaN,14.766, NaN,NaN,NaN, NaN, NaN

20040112,003803,538505,33.481167,-117.770333,NaN,14.771,33.111,40.624,  NaN,0.0, NaN, NaN, NaN, NaN, NaN,336.214,15.00,1014.71,90.40,NaN,223.0,NaN,4.1,NaN,122.8,NaN,4.9,NaN,NaN, NaN,NaN,235.0,NaN,NaN,NaN,2,0.7,002282,   NaN,261.7,     NaN,      NaN,NaN,0.5,NaN,14.775, NaN,NaN,NaN, NaN, NaN

20040112,003833,538535,33.481167,-117.770500,NaN,14.781,33.111,40.634,  NaN,0.0, NaN, NaN, NaN, NaN, NaN,336.384,15.00,1014.66,90.60,NaN,226.0,NaN,4.3,NaN,119.8,NaN,4.7,NaN,NaN, NaN,NaN,250.0,NaN,NaN,NaN,2,0.6,002312,   NaN,257.9,     NaN,      NaN,NaN,0.4,NaN,14.785, NaN,NaN,NaN, NaN, NaN

20040112,003903,538565,33.481167,-117.770500,NaN,14.787,33.111,40.639,  NaN,0.0, NaN, NaN, NaN, NaN, NaN,336.523,14.90,1014.73,90.60,NaN,233.0,NaN,4.6,NaN,123.0,NaN,4.7,NaN,NaN, NaN,NaN,213.0,NaN,NaN,NaN,2,0.5,002342,   NaN,252.7,     NaN,      NaN,NaN,0.4,NaN,14.791, NaN,NaN,NaN, NaN, NaN

20040112,003933,538595,33.481000,-117.770500,NaN,14.791,33.111,40.643,  NaN,0.0, NaN, NaN, NaN, NaN, NaN,336.553,14.90,1014.62,90.80,NaN,241.0,NaN,5.0,NaN,123.6,NaN,4.9,NaN,NaN, NaN,NaN,161.0,NaN,NaN,NaN,2,0.4,002372,   NaN,246.6,     NaN,      NaN,NaN,0.3,NaN,14.795, NaN,NaN,NaN, NaN, NaN

20040112,004003,538625,33.481000,-117.770500,NaN,14.790,33.112,40.643,  NaN,0.0, NaN, NaN, NaN, NaN, NaN,336.509,14.90,1014.59,90.80,NaN,243.0,NaN,4.5,NaN,125.6,NaN,4.6,NaN,NaN, NaN,NaN,192.0,NaN,NaN,NaN,2,0.3,002402,   NaN,242.1,     NaN,      NaN,NaN,0.3,NaN,14.794, NaN,NaN,NaN, NaN, NaN
